Time,TemperatureF,DewpointF,PressureIn,WindDirection,WindDirectionDegrees,WindSpeedMPH,WindSpeedGustMPH,Humidity,HourlyPrecipIn,Conditions,Clouds,dailyrainin,SoftwareType,DateUTC
2013-04-06 00:22:00,57.0,11.0,-100.00,WSW,254,4.0,9.0,16,0.00,,,0.00,,2013-04-06 06:22:00,
2013-04-06 00:32:00,57.0,11.0,-100.00,WSW,254,4.0,9.0,16,0.00,,,0.00,,2013-04-06 06:32:00,
2013-04-06 00:42:00,57.0,11.0,-100.00,WSW,254,4.0,9.0,16,0.00,,,0.00,,2013-04-06 06:42:00,
2013-04-06 00:52:00,57.0,11.0,-100.00,WSW,254,4.0,9.0,16,0.00,,,0.00,,2013-04-06 06:52:00,
2013-04-06 01:12:00,58.0,13.0,-100.00,WSW,250,4.0,12.0,17,0.00,,,0.00,,2013-04-06 07:12:00,
2013-04-06 01:22:00,58.0,13.0,-100.00,WSW,250,4.0,12.0,17,0.00,,,0.00,,2013-04-06 07:22:00,
2013-04-06 01:33:00,58.0,13.0,-100.00,WSW,250,4.0,12.0,17,0.00,,,0.00,,2013-04-06 07:33:00,
2013-04-06 01:43:00,58.0,13.0,-100.00,WSW,250,4.0,12.0,17,0.00,,,0.00,,2013-04-06 07:43:00,
2013-04-06 01:52:00,58.0,13.0,-100.00,WSW,250,4.0,12.0,17,0.00,,,0.00,,2013-04-06 07:52:00,
2013-04-06 02:22:00,59.0,19.0,-100.00,West,276,5.0,15.0,21,0.00,,,0.00,,2013-04-06 08:22:00,
2013-04-06 02:32:00,59.0,19.0,-100.00,West,276,5.0,15.0,21,0.00,,,0.00,,2013-04-06 08:32:00,
2013-04-06 02:42:00,59.0,19.0,-100.00,West,276,5.0,15.0,21,0.00,,,0.00,,2013-04-06 08:42:00,
2013-04-06 02:52:00,59.0,19.0,-100.00,West,276,5.0,15.0,21,0.00,,,0.00,,2013-04-06 08:52:00,
2013-04-06 02:53:00,53.0,18.0,-100.00,ENE,64,2.0,7.0,25,0.00,,,0.00,,2013-04-06 08:53:00,
2013-04-06 03:22:00,53.0,18.0,-100.00,ENE,64,2.0,7.0,25,0.00,,,0.00,,2013-04-06 09:22:00,
2013-04-06 03:33:00,53.0,18.0,-100.00,ENE,64,2.0,7.0,25,0.00,,,0.00,,2013-04-06 09:33:00,
2013-04-06 03:43:00,53.0,18.0,-100.00,ENE,64,2.0,7.0,25,0.00,,,0.00,,2013-04-06 09:43:00,
2013-04-06 04:13:00,49.0,16.0,-100.00,North,2,2.0,6.0,26,0.00,,,0.00,,2013-04-06 10:13:00,
2013-04-06 04:23:00,49.0,16.0,-100.00,North,2,2.0,6.0,26,0.00,,,0.00,,2013-04-06 10:23:00,
2013-04-06 04:33:00,49.0,16.0,-100.00,North,2,2.0,6.0,26,0.00,,,0.00,,2013-04-06 10:33:00,
2013-04-06 04:42:00,49.0,16.0,-100.00,North,2,2.0,6.0,26,0.00,,,0.00,,2013-04-06 10:42:00,
2013-04-06 04:52:00,49.0,16.0,-100.00,North,2,2.0,6.0,26,0.00,,,0.00,,2013-04-06 10:52:00,
2013-04-06 05:23:00,46.0,21.0,-100.00,NE,37,1.0,4.0,36,0.00,,,0.00,,2013-04-06 11:23:00,
2013-04-06 05:33:00,46.0,21.0,-100.00,NE,37,1.0,4.0,36,0.00,,,0.00,,2013-04-06 11:33:00,
2013-04-06 05:43:00,46.0,21.0,-100.00,NE,37,1.0,4.0,36,0.00,,,0.00,,2013-04-06 11:43:00,
2013-04-06 05:52:00,46.0,21.0,-100.00,NE,37,1.0,4.0,36,0.00,,,0.00,,2013-04-06 11:52:00,
2013-04-06 06:12:00,44.0,22.0,-100.00,North,351,2.0,5.0,42,0.00,,,-99.99,,2013-04-06 12:12:00,
2013-04-06 06:22:00,44.0,22.0,-100.00,North,351,2.0,5.0,42,0.00,,,-99.99,,2013-04-06 12:22:00,
2013-04-06 06:33:00,44.0,22.0,-100.00,North,351,2.0,5.0,42,0.00,,,-99.99,,2013-04-06 12:33:00,
2013-04-06 06:43:00,44.0,22.0,-100.00,North,351,2.0,5.0,42,0.00,,,-99.99,,2013-04-06 12:43:00,
2013-04-06 06:52:00,44.0,22.0,-100.00,North,351,2.0,5.0,42,0.00,,,-99.99,,2013-04-06 12:52:00,
2013-04-06 07:13:00,42.0,21.0,-100.00,NNW,327,1.0,5.0,42,0.00,,,0.00,,2013-04-06 13:13:00,
2013-04-06 07:24:00,42.0,21.0,-100.00,NNW,327,1.0,5.0,42,0.00,,,0.00,,2013-04-06 13:24:00,
2013-04-06 07:32:00,42.0,21.0,-100.00,NNW,327,1.0,5.0,42,0.00,,,0.00,,2013-04-06 13:32:00,
2013-04-06 07:43:00,42.0,21.0,-100.00,NNW,327,1.0,5.0,42,0.00,,,0.00,,2013-04-06 13:43:00,
2013-04-06 07:52:00,42.0,21.0,-100.00,NNW,327,1.0,5.0,42,0.00,,,0.00,,2013-04-06 13:52:00,
2013-04-06 08:22:00,49.0,28.0,-100.00,NNW,347,1.0,3.0,44,0.00,,,0.00,,2013-04-06 14:22:00,
2013-04-06 08:33:00,49.0,28.0,-100.00,NNW,347,1.0,3.0,44,0.00,,,0.00,,2013-04-06 14:33:00,
2013-04-06 08:42:00,49.0,28.0,-100.00,NNW,347,1.0,3.0,44,0.00,,,0.00,,2013-04-06 14:42:00,
2013-04-06 08:52:00,49.0,28.0,-100.00,NNW,347,1.0,3.0,44,0.00,,,0.00,,2013-04-06 14:52:00,
2013-04-06 09:23:00,59.0,23.0,-100.00,ENE,64,1.0,4.0,25,0.00,,,0.00,,2013-04-06 15:23:00,
2013-04-06 09:33:00,59.0,23.0,-100.00,ENE,64,1.0,4.0,25,0.00,,,0.00,,2013-04-06 15:33:00,
2013-04-06 09:43:00,59.0,23.0,-100.00,ENE,64,1.0,4.0,25,0.00,,,0.00,,2013-04-06 15:43:00,
2013-04-06 09:52:00,59.0,23.0,-100.00,ENE,64,1.0,4.0,25,0.00,,,0.00,,2013-04-06 15:52:00,
2013-04-06 10:17:00,62.0,24.0,-100.00,East,84,2.0,5.0,23,0.00,,,0.00,,2013-04-06 16:17:00,
2013-04-06 10:23:00,62.0,24.0,-100.00,East,84,2.0,5.0,23,0.00,,,0.00,,2013-04-06 16:23:00,
2013-04-06 10:33:00,62.0,24.0,-100.00,East,84,2.0,5.0,23,0.00,,,0.00,,2013-04-06 16:33:00,
2013-04-06 10:42:00,62.0,24.0,-100.00,East,84,2.0,5.0,23,0.00,,,0.00,,2013-04-06 16:42:00,
2013-04-06 10:52:00,62.0,24.0,-100.00,East,84,2.0,5.0,23,0.00,,,0.00,,2013-04-06 16:52:00,
2013-04-06 11:22:00,63.0,21.0,-100.00,ESE,114,2.0,7.0,20,0.00,,,0.00,,2013-04-06 17:22:00,
2013-04-06 11:32:00,63.0,21.0,-100.00,ESE,114,2.0,7.0,20,0.00,,,0.00,,2013-04-06 17:32:00,
2013-04-06 11:42:00,63.0,21.0,-100.00,ESE,114,2.0,7.0,20,0.00,,,0.00,,2013-04-06 17:42:00,
2013-04-06 11:52:00,63.0,21.0,-100.00,ESE,114,2.0,7.0,20,0.00,,,0.00,,2013-04-06 17:52:00,
2013-04-06 12:23:00,68.0,22.0,-100.00,SE,141,4.0,8.0,17,0.00,,,0.00,,2013-04-06 18:23:00,
2013-04-06 12:32:00,68.0,22.0,-100.00,SE,141,4.0,8.0,17,0.00,,,0.00,,2013-04-06 18:32:00,
2013-04-06 12:42:00,68.0,22.0,-100.00,SE,141,4.0,8.0,17,0.00,,,0.00,,2013-04-06 18:42:00,
2013-04-06 12:52:00,68.0,22.0,-100.00,SE,141,4.0,8.0,17,0.00,,,0.00,,2013-04-06 18:52:00,
2013-04-06 13:23:00,73.0,23.0,-100.00,SSW,194,3.0,9.0,15,0.00,,,0.00,,2013-04-06 19:23:00,
2013-04-06 13:33:00,73.0,23.0,-100.00,SSW,194,3.0,9.0,15,0.00,,,0.00,,2013-04-06 19:33:00,
2013-04-06 13:42:00,73.0,23.0,-100.00,SSW,194,3.0,9.0,15,0.00,,,0.00,,2013-04-06 19:42:00,
2013-04-06 13:52:00,73.0,23.0,-100.00,SSW,194,3.0,9.0,15,0.00,,,0.00,,2013-04-06 19:52:00,
2013-04-06 14:22:00,73.0,19.0,-100.00,SE,144,5.0,14.0,13,0.00,,,0.00,,2013-04-06 20:22:00,
2013-04-06 14:32:00,73.0,19.0,-100.00,SE,144,5.0,14.0,13,0.00,,,0.00,,2013-04-06 20:32:00,
2013-04-06 14:42:00,73.0,19.0,-100.00,SE,144,5.0,14.0,13,0.00,,,0.00,,2013-04-06 20:42:00,
2013-04-06 14:52:00,73.0,19.0,-100.00,SE,144,5.0,14.0,13,0.00,,,0.00,,2013-04-06 20:52:00,
2013-04-06 15:53:00,78.0,19.0,-100.00,South,179,5.0,23.0,11,-99.99,,,0.00,,2013-04-06 21:53:00,
2013-04-06 16:23:00,78.0,19.0,-100.00,South,179,5.0,23.0,11,-99.99,,,0.00,,2013-04-06 22:23:00,
2013-04-06 16:34:00,78.0,19.0,-100.00,South,179,5.0,23.0,11,-99.99,,,0.00,,2013-04-06 22:34:00,
2013-04-06 16:43:00,78.0,19.0,-100.00,South,179,5.0,23.0,11,-99.99,,,0.00,,2013-04-06 22:43:00,
2013-04-06 17:13:00,77.0,18.0,-100.00,SW,231,6.0,15.0,11,0.00,,,0.00,,2013-04-06 23:13:00,
2013-04-06 17:23:00,77.0,18.0,-100.00,SW,231,6.0,15.0,11,0.00,,,0.00,,2013-04-06 23:23:00,
2013-04-06 17:34:00,77.0,18.0,-100.00,SW,231,6.0,15.0,11,0.00,,,0.00,,2013-04-06 23:34:00,
2013-04-06 17:42:00,77.0,18.0,-100.00,SW,231,6.0,15.0,11,0.00,,,0.00,,2013-04-06 23:42:00,
2013-04-06 17:52:00,77.0,18.0,-100.00,SW,231,6.0,15.0,11,0.00,,,0.00,,2013-04-06 23:52:00,
2013-04-06 18:22:00,76.0,13.0,-100.00,SW,221,6.0,21.0,9,0.00,,,0.00,,2013-04-07 00:22:00,
2013-04-06 18:33:00,76.0,13.0,-100.00,SW,221,6.0,21.0,9,0.00,,,0.00,,2013-04-07 00:33:00,
2013-04-06 18:43:00,76.0,13.0,-100.00,SW,221,6.0,21.0,9,0.00,,,0.00,,2013-04-07 00:43:00,
2013-04-06 18:52:00,76.0,13.0,-100.00,SW,221,6.0,21.0,9,0.00,,,0.00,,2013-04-07 00:52:00,
2013-04-06 19:23:00,74.0,14.0,-100.00,SW,223,7.0,19.0,10,0.00,,,0.00,,2013-04-07 01:23:00,
2013-04-06 19:32:00,74.0,14.0,-100.00,SW,223,7.0,19.0,10,0.00,,,0.00,,2013-04-07 01:32:00,
2013-04-06 19:43:00,74.0,14.0,-100.00,SW,223,7.0,19.0,10,0.00,,,0.00,,2013-04-07 01:43:00,
2013-04-06 19:52:00,74.0,14.0,-100.00,SW,223,7.0,19.0,10,0.00,,,0.00,,2013-04-07 01:52:00,
2013-04-06 20:12:00,69.0,12.0,-100.00,SW,236,5.0,15.0,11,0.00,,,0.00,,2013-04-07 02:12:00,
2013-04-06 20:23:00,69.0,12.0,-100.00,SW,236,5.0,15.0,11,0.00,,,0.00,,2013-04-07 02:23:00,
2013-04-06 20:32:00,69.0,12.0,-100.00,SW,236,5.0,15.0,11,0.00,,,0.00,,2013-04-07 02:32:00,
2013-04-06 20:43:00,69.0,12.0,-100.00,SW,236,5.0,15.0,11,0.00,,,0.00,,2013-04-07 02:43:00,
2013-04-06 20:52:00,69.0,12.0,-100.00,SW,236,5.0,15.0,11,0.00,,,0.00,,2013-04-07 02:52:00,
2013-04-06 20:53:00,68.0,12.0,-100.00,WSW,247,6.0,14.0,11,0.00,,,0.00,,2013-04-07 02:53:00,
2013-04-06 21:22:00,68.0,12.0,-100.00,WSW,247,6.0,14.0,11,0.00,,,0.00,,2013-04-07 03:22:00,
2013-04-06 21:35:00,68.0,12.0,-100.00,WSW,247,6.0,14.0,11,0.00,,,0.00,,2013-04-07 03:35:00,
2013-04-06 21:43:00,68.0,12.0,-100.00,WSW,247,6.0,14.0,11,0.00,,,0.00,,2013-04-07 03:43:00,
2013-04-06 22:23:00,67.0,13.0,-100.00,West,279,8.0,14.0,12,0.00,,,0.00,,2013-04-07 04:23:00,
2013-04-06 22:32:00,67.0,13.0,-100.00,West,279,8.0,14.0,12,0.00,,,0.00,,2013-04-07 04:32:00,
2013-04-06 22:43:00,67.0,13.0,-100.00,West,279,8.0,14.0,12,0.00,,,0.00,,2013-04-07 04:43:00,
2013-04-06 22:52:00,67.0,13.0,-100.00,West,279,8.0,14.0,12,0.00,,,0.00,,2013-04-07 04:52:00,
2013-04-06 23:12:00,66.0,14.0,-100.00,West,270,5.0,13.0,13,0.00,,,0.00,,2013-04-07 05:12:00,
2013-04-06 23:23:00,66.0,14.0,-100.00,West,270,5.0,13.0,13,0.00,,,0.00,,2013-04-07 05:23:00,
2013-04-06 23:33:00,66.0,14.0,-100.00,West,270,5.0,13.0,13,0.00,,,0.00,,2013-04-07 05:33:00,
2013-04-06 23:42:00,66.0,14.0,-100.00,West,270,5.0,13.0,13,0.00,,,0.00,,2013-04-07 05:42:00,
2013-04-06 23:52:00,66.0,14.0,-100.00,West,270,5.0,13.0,13,0.00,,,0.00,,2013-04-07 05:52:00,